GW6015 Weather Reports


time (UTC)temp
F
wind
direction
speed
knots
gust
knots
rain 1hr
in
rain 24hr
in
rain mn
in
humidity
%
barometer
mb
20260505011618 52 221 1.7 7.0 0.00 0.00 0.00 80 1012.7
20260505010104 53 195 2.6 6.1 0.00 0.00 0.00 79 1012.7
20260505004557 53 178 1.7 4.3 0.00 0.00 0.00 79 1012.4
20260505003054 53 207 1.7 6.1 0.00 0.00 0.00 78 1012.2
20260505001558 53 190 1.7 5.2 0.00 0.00 0.00 77 1011.8
20260505000108 54 175 2.6 6.1 0.00 0.00 0.00 76 1011.5
20260504234606 54 182 1.7 9.6 0.00 0.00 0.00 74 1011.4
20260504233058 55 181 2.6 7.8 0.00 0.00 0.00 72 1011.1
20260504231554 56 255 3.5 10.4 0.00 0.00 0.00 70 1011.0
20260504230059 56 206 3.5 10.4 0.00 0.00 0.00 68 1011.0
20260504224602 57 233 4.3 10.4 0.00 0.00 0.00 66 1011.1
20260504223058 57 171 4.3 13.9 0.00 0.00 0.00 63 1011.0
20260504221556 58 176 4.3 13.0 0.00 0.00 0.00 61 1010.9
20260504214559 60 273 2.6 9.6 0.00 0.00 0.00 58 1011.0
20260504213110 61 216 2.6 10.4 0.00 0.00 0.00 56 1011.1
20260504211555 61 215 4.3 8.7 0.00 0.00 0.00 54 1010.9
20260504210105 63 148 2.6 12.2 0.00 0.00 0.00 52 1011.2
20260504204603 63 177 4.3 12.2 0.00 0.00 0.00 49 1011.0
20260504203059 64 198 5.2 11.3 0.00 0.00 0.00 48 1010.9
20260504201558 64 246 4.3 12.2 0.00 0.00 0.00 47 1010.8
20260504200057 64 207 3.5 11.3 0.00 0.00 0.00 49 1010.8
20260504194559 64 169 3.5 9.6 0.00 0.00 0.00 49 1011.0
20260504193113 64 216 3.5 11.3 0.00 0.00 0.00 49 1011.0
20260504191559 64 164 4.3 8.7 0.00 0.00 0.00 49 1010.9
20260504190108 64 208 5.2 13.9 0.00 0.00 0.00 49 1010.9
20260504184559 64 212 3.5 11.3 0.00 0.00 0.00 49 1011.1
20260504183102 63 234 4.3 11.3 0.00 0.00 0.00 49 1011.3
20260504181558 64 225 5.2 12.2 0.00 0.00 0.00 45 1011.3
20260504180140 63 175 3.5 12.2 0.00 0.00 0.00 45 1011.7
20260504174559 65 174 4.3 14.8 0.00 0.00 0.00 40 1011.7
20260504173056 65 250 4.3 12.2 0.00 0.00 0.00 39 1011.7
20260504171556 65 248 3.5 13.9 0.00 0.00 0.00 39 1011.7
20260504120108 52 223 1.7 5.2 0.00 0.01 0.00 61 1013.7
20260504100118 47 253 1.7 6.1 0.00 0.01 0.00 69 1013.1
20260504081608 44 0 0.0 0.0 0.00 0.01 0.00 73 1012.9
20260504060107 42 0 0.0 0.0 0.00 0.01 0.00 74 1012.5
20260504050110 44 0 0.0 0.0 0.00 0.01 0.00 75 1012.4
20260504044557 44 0 0.0 0.9 0.00 0.01 0.00 75 1012.5
20260504043102 44 0 0.0 0.0 0.00 0.01 0.00 75 1012.6
20260504041559 43 0 0.0 0.9 0.00 0.01 0.00 74 1012.5
20260504040104 43 0 0.0 0.0 0.00 0.01 0.00 73 1012.4
20260504034610 44 0 0.0 0.0 0.00 0.01 0.01 72 1012.4
20260504033101 44 0 0.0 0.0 0.00 0.01 0.01 70 1012.4
20260504031604 44 0 0.0 0.0 0.00 0.01 0.01 68 1012.2
20260504030058 45 0 0.0 0.9 0.00 0.01 0.01 64 1012.1
20260504024558 46 0 0.0 1.7 0.00 0.01 0.01 58 1012.1
20260504023058 47 0 0.0 0.9 0.00 0.01 0.01 53 1012.1
20260504021602 47 0 0.0 1.7 0.00 0.01 0.01 50 1012.1
20260504020114 48 0 0.0 0.0 0.00 0.01 0.01 47 1012.0
20260504014605 48 0 0.0 0.0 0.00 0.01 0.01 47 1011.9
20260504013106 48 0 0.0 0.0 0.00 0.01 0.01 46 1011.6